{"data":{"norad_id":56054,"intl_designator":"2023-043J","name":"ONEWEB-0552","alt_names":[],"object_type":"PAYLOAD","status":"ACTIVE","operator":null,"country":"UK","launch_date":"2023-03-26","launch_site_code":"SRILR","launch_vehicle":null,"mission":null,"orbit_class":"UNKNOWN","rcs_meters":null,"size_class":null,"mass_kg":null,"dimensions":null,"purposes":["comms"],"wikipedia_slug":null,"has_3d_model":false,"image_url":null,"decayed_at":null,"tle_current":{"epoch":"2026-05-24T23:38:19.688640Z","epoch_age_seconds":86728,"freshness":"FRESH","line1":"1 56054U 23043J   26144.98495010 -.00000024  00000+0 -89112-4 0  9997","line2":"2 56054  87.9250 248.6008 0001842  95.8468 264.2876 13.21825051155167","mean_motion":13.21825051,"eccentricity":0.0001842,"inclination_deg":87.925,"raan_deg":248.6008,"arg_perigee_deg":95.8468,"mean_anomaly_deg":264.2876,"bstar":-8.9112e-5,"rev_number":15516,"period_min":108.94028668246,"perigee_km":1176.36518918,"apogee_km":1179.1487805241,"semimajor_km":7555.8939848521,"source":"CELESTRAK","updated_at":"2026-05-25T13:38:22.701486Z"}}}